UAL75 EDDH-KEWR

Flight info

Callsign UAL75
Flight time N/A
Altitude 34000
Route WSN4B WSN N125 PREXA DCT RAVLO Y70 OTBED L60 PENIL UL70 BAGSO DCT MOLAK DCT RESNO/M079F350 NATA JANJO/N0449F360 N712B QUBIS DCT CBIRD DCT KJOHN DCT HANAA FLOSI4
Aircraft B764/H-SDE3FGHIM3RWXY/LB1

Departure

Time N/A
Airport Hamburg Helmut Schmidt Airport (EDDH)

Arrival

Time 2026-04-26 19:40
Airport Newark Liberty International Airport (KEWR)
Time Latitude Longitude Altitude Speed Heading
2026-04-26 17:34 51.94698 -60.98667 34499 ft 531 kts 227°
2026-04-26 17:35 51.92221 -61.03037 34736 ft 528 kts 227°
2026-04-26 17:35 51.89758 -61.07375 34977 ft 524 kts 227°
2026-04-26 17:35 51.87291 -61.11712 35118 ft 522 kts 227°
2026-04-26 17:36 51.82371 -61.20335 35114 ft 526 kts 227°
2026-04-26 17:36 51.77414 -61.28998 35114 ft 529 kts 227°
2026-04-26 17:37 51.72411 -61.37707 35126 ft 532 kts 227°
2026-04-26 17:37 51.67371 -61.46449 35128 ft 535 kts 227°
2026-04-26 17:38 51.59794 -61.59537 35449 ft 530 kts 227°
2026-04-26 17:38 51.57295 -61.63839 35677 ft 526 kts 226°
2026-04-26 17:38 51.54810 -61.68111 35899 ft 521 kts 225°
2026-04-26 17:39 51.52341 -61.72345 36104 ft 517 kts 226°
2026-04-26 17:39 51.49869 -61.76579 36118 ft 518 kts 225°
2026-04-26 17:39 51.44947 -61.84986 36135 ft 519 kts 226°
2026-04-26 17:40 51.41684 -61.90542 36144 ft 520 kts 226°
2026-04-26 17:40 51.37477 -61.97689 36150 ft 532 kts 225°
2026-04-26 17:40 51.34977 -62.01927 36135 ft 524 kts 225°
2026-04-26 17:41 51.30003 -62.10337 36137 ft 522 kts 226°
2026-04-26 17:41 51.25021 -62.18734 36136 ft 523 kts 225°
2026-04-26 17:42 51.20001 -62.27164 36142 ft 524 kts 225°
2026-04-26 17:42 51.14996 -62.35541 36448 ft 525 kts 225°
2026-04-26 17:43 51.10052 -62.43790 36429 ft 504 kts 225°
2026-04-26 17:43 51.07674 -62.47749 36403 ft 489 kts 225°
2026-04-26 17:43 51.05353 -62.51609 36116 ft 481 kts 225°
2026-04-26 17:44 51.03072 -62.55393 36147 ft 467 kts 225°
2026-04-26 17:44 51.00831 -62.59105 36125 ft 467 kts 225°
2026-04-26 17:44 50.96326 -62.66550 36139 ft 470 kts 224°
2026-04-26 17:45 50.91818 -62.73977 36143 ft 472 kts 224°
2026-04-26 17:45 50.87268 -62.81450 36142 ft 476 kts 224°
2026-04-26 17:46 50.84941 -62.85264 36147 ft 487 kts 224°
2026-04-26 17:46 50.82536 -62.89197 36158 ft 501 kts 224°
2026-04-26 17:46 50.80098 -62.93179 36151 ft 514 kts 224°
2026-04-26 17:46 50.77602 -62.97249 36156 ft 526 kts 224°
2026-04-26 17:47 50.74244 -63.02719 36167 ft 517 kts 224°
2026-04-26 17:47 50.67545 -63.13593 36168 ft 520 kts 224°
2026-04-26 17:48 50.62501 -63.21745 36171 ft 521 kts 224°
2026-04-26 17:48 50.57456 -63.29876 36168 ft 523 kts 224°
2026-04-26 17:49 50.52380 -63.38028 36169 ft 523 kts 224°
2026-04-26 17:49 50.47273 -63.46204 36183 ft 523 kts 224°
2026-04-26 17:50 50.42206 -63.54290 35958 ft 522 kts 224°
2026-04-26 17:50 50.39667 -63.58333 36174 ft 517 kts 224°
2026-04-26 17:50 50.37154 -63.62328 36168 ft 519 kts 223°
2026-04-26 17:51 50.32195 -63.70189 36178 ft 521 kts 222°
2026-04-26 17:51 50.27109 -63.78226 36182 ft 521 kts 223°
2026-04-26 17:52 50.22025 -63.86235 36197 ft 521 kts 223°
2026-04-26 17:52 50.16920 -63.94249 36204 ft 523 kts 223°
2026-04-26 17:53 50.11788 -64.02283 36196 ft 524 kts 222°
2026-04-26 17:54 50.04084 -64.14291 36195 ft 524 kts 223°
2026-04-26 17:54 49.98925 -64.22304 36197 ft 524 kts 222°
2026-04-26 17:55 49.93796 -64.30242 36198 ft 523 kts 223°
2026-04-26 17:55 49.88618 -64.38231 36196 ft 524 kts 222°
2026-04-26 17:56 49.83475 -64.46140 36195 ft 523 kts 222°
2026-04-26 17:57 49.73143 -64.61952 36197 ft 523 kts 223°
2026-04-26 17:57 49.68002 -64.69785 36190 ft 523 kts 221°
2026-04-26 17:58 49.57650 -64.85479 36191 ft 521 kts 221°
2026-04-26 17:59 49.49913 -64.97144 36196 ft 520 kts 221°
2026-04-26 17:59 49.44728 -65.04934 36195 ft 521 kts 221°
2026-04-26 18:00 49.39578 -65.12643 36192 ft 521 kts 221°
2026-04-26 18:00 49.34381 -65.20401 36187 ft 519 kts 221°
2026-04-26 18:01 49.29245 -65.28044 36183 ft 518 kts 221°
2026-04-26 18:01 49.24081 -65.35706 36179 ft 519 kts 221°
2026-04-26 18:02 49.20622 -65.40822 36177 ft 517 kts 221°
2026-04-26 18:02 49.13763 -65.50942 36176 ft 515 kts 221°
2026-04-26 18:03 49.08593 -65.58540 36182 ft 515 kts 221°
2026-04-26 18:03 49.03415 -65.66129 36173 ft 514 kts 220°
2026-04-26 18:04 48.98306 -65.73595 36172 ft 514 kts 220°
2026-04-26 18:05 48.90554 -65.84876 36157 ft 515 kts 220°
2026-04-26 18:05 48.85410 -65.92336 36154 ft 514 kts 220°
2026-04-26 18:06 48.80246 -65.99805 36153 ft 512 kts 220°
2026-04-26 18:06 48.75085 -66.07240 36156 ft 513 kts 220°
2026-04-26 18:07 48.69891 -66.14704 36152 ft 515 kts 220°
2026-04-26 18:07 48.64724 -66.22111 36153 ft 514 kts 220°
2026-04-26 18:08 48.59539 -66.29518 36159 ft 514 kts 220°
2026-04-26 18:08 48.54352 -66.36905 36152 ft 513 kts 220°
2026-04-26 18:09 48.49178 -66.44254 36152 ft 512 kts 220°
2026-04-26 18:09 48.43993 -66.51595 36152 ft 510 kts 219°
2026-04-26 18:10 48.38846 -66.58862 36151 ft 511 kts 219°
2026-04-26 18:10 48.33652 -66.66174 36157 ft 511 kts 219°
2026-04-26 18:11 48.28476 -66.73438 36162 ft 510 kts 219°
2026-04-26 18:11 48.23344 -66.80621 36152 ft 509 kts 219°
2026-04-26 18:12 48.18145 -66.87877 36156 ft 508 kts 219°
2026-04-26 18:12 48.13009 -66.95025 36157 ft 508 kts 218°
2026-04-26 18:13 48.07846 -67.02187 36152 ft 506 kts 219°
2026-04-26 18:13 48.02856 -67.09093 36155 ft 505 kts 219°
2026-04-26 18:14 47.97689 -67.16220 36155 ft 506 kts 219°
2026-04-26 18:14 47.92529 -67.23321 36155 ft 506 kts 219°
2026-04-26 18:15 47.87376 -67.30389 36153 ft 504 kts 219°
2026-04-26 18:15 47.82225 -67.37435 36158 ft 503 kts 219°
2026-04-26 18:16 47.77076 -67.44459 36157 ft 503 kts 219°
2026-04-26 18:16 47.69386 -67.54913 36160 ft 501 kts 219°
2026-04-26 18:17 47.64249 -67.61872 36159 ft 500 kts 219°
2026-04-26 18:17 47.59113 -67.68811 36151 ft 499 kts 219°
2026-04-26 18:18 47.54035 -67.75647 36151 ft 497 kts 219°
2026-04-26 18:18 47.48900 -67.82462 36153 ft 497 kts 218°
2026-04-26 18:19 47.43765 -67.89253 36154 ft 496 kts 219°
2026-04-26 18:19 47.38637 -67.96012 36154 ft 495 kts 219°
2026-04-26 18:20 47.33490 -68.02779 36161 ft 495 kts 219°
2026-04-26 18:20 47.30096 -68.07228 36155 ft 495 kts 219°
2026-04-26 18:21 47.23228 -68.16210 36172 ft 495 kts 219°
2026-04-26 18:21 47.18092 -68.22908 36161 ft 494 kts 219°
2026-04-26 18:22 47.12967 -68.29572 36155 ft 494 kts 220°
2026-04-26 18:22 47.07833 -68.36230 36160 ft 493 kts 220°
2026-04-26 18:23 47.02692 -68.42878 36162 ft 493 kts 220°
2026-04-26 18:23 46.97564 -68.49490 36155 ft 491 kts 220°
2026-04-26 18:24 46.92446 -68.56075 36143 ft 491 kts 221°
2026-04-26 18:24 46.87345 -68.62621 36151 ft 492 kts 221°
2026-04-26 18:25 46.82208 -68.69193 36152 ft 491 kts 220°
2026-04-26 18:25 46.77056 -68.75769 36151 ft 492 kts 220°
2026-04-26 18:26 46.71906 -68.82322 36153 ft 493 kts 221°
2026-04-26 18:26 46.66755 -68.88863 36151 ft 492 kts 221°
2026-04-26 18:27 46.61611 -68.95377 36153 ft 491 kts 221°
2026-04-26 18:27 46.56434 -69.01916 36147 ft 491 kts 221°
2026-04-26 18:28 46.51281 -69.08407 36150 ft 491 kts 221°
2026-04-26 18:28 46.46124 -69.14884 36149 ft 490 kts 221°
2026-04-26 18:29 46.41005 -69.21300 36154 ft 488 kts 221°
2026-04-26 18:29 46.35863 -69.27726 36156 ft 489 kts 222°
2026-04-26 18:30 46.30692 -69.34173 36147 ft 489 kts 222°
2026-04-26 18:30 46.25577 -69.40532 36148 ft 487 kts 222°
2026-04-26 18:31 46.20433 -69.46912 36146 ft 487 kts 221°
2026-04-26 18:31 46.15275 -69.53293 36147 ft 487 kts 221°
2026-04-26 18:32 46.10154 -69.59612 36142 ft 487 kts 221°
2026-04-26 18:32 46.05017 -69.65934 36144 ft 487 kts 221°
2026-04-26 18:33 45.99862 -69.72263 36139 ft 487 kts 221°
2026-04-26 18:33 45.94704 -69.78579 36139 ft 486 kts 221°
2026-04-26 18:34 45.89551 -69.84873 36138 ft 485 kts 221°
2026-04-26 18:34 45.84449 -69.91089 36132 ft 485 kts 221°
2026-04-26 18:35 45.79301 -69.97345 36121 ft 485 kts 221°
2026-04-26 18:35 45.74170 -70.03565 36133 ft 484 kts 221°
2026-04-26 18:36 45.69021 -70.09792 36127 ft 484 kts 221°
2026-04-26 18:36 45.63895 -70.15974 36127 ft 484 kts 221°
2026-04-26 18:37 45.58760 -70.22154 36132 ft 484 kts 221°
2026-04-26 18:37 45.53602 -70.28345 36135 ft 483 kts 221°
2026-04-26 18:38 45.48463 -70.34499 36128 ft 484 kts 221°
2026-04-26 18:38 45.43325 -70.40633 36129 ft 483 kts 221°
2026-04-26 18:39 45.38202 -70.46738 36130 ft 483 kts 221°
2026-04-26 18:39 45.33058 -70.52851 36127 ft 483 kts 221°
2026-04-26 18:40 45.27898 -70.58968 36122 ft 484 kts 221°
2026-04-26 18:40 45.22738 -70.65071 36121 ft 484 kts 220°
2026-04-26 18:41 45.17579 -70.71159 36117 ft 483 kts 220°
2026-04-26 18:41 45.12416 -70.77235 36117 ft 482 kts 220°
2026-04-26 18:42 45.07274 -70.83273 36115 ft 482 kts 220°
2026-04-26 18:42 45.02095 -70.89337 36113 ft 483 kts 220°
2026-04-26 18:43 44.96917 -70.95388 36121 ft 484 kts 220°
2026-04-26 18:43 44.91730 -71.01433 36123 ft 483 kts 220°
2026-04-26 18:44 44.86555 -71.07450 36117 ft 483 kts 220°
2026-04-26 18:44 44.81261 -71.13214 36123 ft 483 kts 217°
2026-04-26 18:45 44.75867 -71.18840 36118 ft 483 kts 217°
2026-04-26 18:45 44.70461 -71.24456 36131 ft 483 kts 217°
2026-04-26 18:46 44.65055 -71.30055 36132 ft 484 kts 217°
2026-04-26 18:46 44.59646 -71.35642 36148 ft 483 kts 217°
2026-04-26 18:47 44.54237 -71.41216 36140 ft 484 kts 217°
2026-04-26 18:47 44.48814 -71.46790 36140 ft 483 kts 217°
2026-04-26 18:48 44.43424 -71.52317 36144 ft 483 kts 217°
2026-04-26 18:48 44.37986 -71.57882 36152 ft 483 kts 217°
2026-04-26 18:49 44.32588 -71.63392 36145 ft 483 kts 217°
2026-04-26 18:49 44.27161 -71.68918 36137 ft 483 kts 217°
2026-04-26 18:50 44.21858 -71.74667 36135 ft 482 kts 225°
2026-04-26 18:50 44.17636 -71.81898 36140 ft 482 kts 234°
2026-04-26 18:51 44.13635 -71.89372 36138 ft 482 kts 234°
2026-04-26 18:51 44.09654 -71.96842 36138 ft 480 kts 234°
2026-04-26 18:52 44.05700 -72.04261 36137 ft 478 kts 234°
2026-04-26 18:52 44.01744 -72.11674 36132 ft 480 kts 234°
2026-04-26 18:53 43.97780 -72.19085 36140 ft 480 kts 235°
2026-04-26 18:53 43.93809 -72.26492 36138 ft 480 kts 235°
2026-04-26 18:54 43.89806 -72.33940 36140 ft 479 kts 235°
2026-04-26 18:54 43.85827 -72.41323 36136 ft 479 kts 235°
2026-04-26 18:55 43.81839 -72.48705 36134 ft 479 kts 235°
2026-04-26 18:55 43.77855 -72.56062 36134 ft 479 kts 235°
2026-04-26 18:56 43.73867 -72.63408 36140 ft 479 kts 235°
2026-04-26 18:56 43.69863 -72.70763 36131 ft 479 kts 234°
2026-04-26 18:57 43.67206 -72.75635 36129 ft 479 kts 234°
2026-04-26 18:57 43.61851 -72.85428 36146 ft 479 kts 235°
2026-04-26 18:58 43.57854 -72.92718 36150 ft 479 kts 234°
2026-04-26 18:58 43.53829 -73.00037 36146 ft 478 kts 235°
2026-04-26 18:59 43.49836 -73.07283 36138 ft 477 kts 235°
2026-04-26 18:59 43.45827 -73.14539 36132 ft 477 kts 235°
2026-04-26 19:00 43.41819 -73.21775 36128 ft 478 kts 235°
2026-04-26 19:00 43.37774 -73.29060 36125 ft 477 kts 235°
2026-04-26 19:01 43.33776 -73.36243 36126 ft 477 kts 235°
2026-04-26 19:01 43.29726 -73.43503 36130 ft 478 kts 235°
2026-04-26 19:02 43.25706 -73.50689 36129 ft 477 kts 236°
2026-04-26 19:02 43.22190 -73.56536 36126 ft 479 kts 227°
2026-04-26 19:03 43.18704 -73.60361 36139 ft 484 kts 215°
2026-04-26 19:03 43.15715 -73.62545 36149 ft 488 kts 206°
2026-04-26 19:03 43.09329 -73.65746 36128 ft 491 kts 201°
2026-04-26 19:04 43.06139 -73.67246 36410 ft 490 kts 201°
2026-04-26 19:04 43.02903 -73.68736 36369 ft 486 kts 201°
2026-04-26 19:04 42.99742 -73.70174 36091 ft 477 kts 200°
2026-04-26 19:04 42.96638 -73.71572 36213 ft 458 kts 200°
2026-04-26 19:05 42.87712 -73.75564 36136 ft 448 kts 201°
2026-04-26 19:06 42.81780 -73.78195 36168 ft 451 kts 201°
2026-04-26 19:06 42.75739 -73.80871 36159 ft 470 kts 201°
2026-04-26 19:06 42.72583 -73.82265 36162 ft 484 kts 201°
2026-04-26 19:07 42.69374 -73.83677 35838 ft 480 kts 201°
2026-04-26 19:07 42.66222 -73.85063 36276 ft 474 kts 201°
2026-04-26 19:07 42.63117 -73.86429 35781 ft 468 kts 201°
2026-04-26 19:07 42.60062 -73.87768 36080 ft 452 kts 201°
2026-04-26 19:08 42.57069 -73.89085 36067 ft 458 kts 201°
2026-04-26 19:08 42.54044 -73.90414 36169 ft 460 kts 201°
2026-04-26 19:08 42.51022 -73.91737 36120 ft 454 kts 201°
2026-04-26 19:09 42.44934 -73.94404 36154 ft 470 kts 201°
2026-04-26 19:09 42.41786 -73.95780 36154 ft 483 kts 201°
2026-04-26 19:09 42.38555 -73.97190 36139 ft 485 kts 201°
2026-04-26 19:10 42.32239 -73.99935 36044 ft 473 kts 201°
2026-04-26 19:10 42.29086 -74.01309 35206 ft 482 kts 201°
2026-04-26 19:10 42.25972 -74.02657 35536 ft 459 kts 201°
2026-04-26 19:10 42.22992 -74.03950 36113 ft 454 kts 202°
2026-04-26 19:11 42.19928 -74.05284 36126 ft 468 kts 202°
2026-04-26 19:11 42.16791 -74.06646 36158 ft 480 kts 201°
2026-04-26 19:11 42.13591 -74.08031 36125 ft 479 kts 201°
2026-04-26 19:12 42.07340 -74.10728 36145 ft 474 kts 202°
2026-04-26 19:12 42.01010 -74.13458 36139 ft 478 kts 202°
2026-04-26 19:13 41.94710 -74.16166 36146 ft 472 kts 202°
2026-04-26 19:13 41.91616 -74.17493 35924 ft 464 kts 202°
2026-04-26 19:13 41.88582 -74.18795 35705 ft 456 kts 202°
2026-04-26 19:13 41.85558 -74.20093 35290 ft 456 kts 202°
2026-04-26 19:14 41.82549 -74.21384 34717 ft 456 kts 202°
2026-04-26 19:14 41.79523 -74.22680 34244 ft 456 kts 202°
2026-04-26 19:14 41.76498 -74.23972 34143 ft 453 kts 202°
2026-04-26 19:15 41.70361 -74.26594 32856 ft 472 kts 202°
2026-04-26 19:15 41.67234 -74.27926 32127 ft 474 kts 202°
2026-04-26 19:15 41.64111 -74.29253 31405 ft 476 kts 203°
2026-04-26 19:15 41.60963 -74.30592 30672 ft 478 kts 204°
2026-04-26 19:16 41.57786 -74.31941 30101 ft 473 kts 203°
2026-04-26 19:16 41.54701 -74.33245 30092 ft 457 kts 204°
2026-04-26 19:16 41.51734 -74.34523 29710 ft 451 kts 204°
2026-04-26 19:16 41.48738 -74.35823 29051 ft 451 kts 204°
2026-04-26 19:17 41.45794 -74.37093 28635 ft 445 kts 204°
2026-04-26 19:17 41.42855 -74.38361 28107 ft 442 kts 204°
2026-04-26 19:17 41.39926 -74.39623 27569 ft 440 kts 204°
2026-04-26 19:17 41.37039 -74.40866 27039 ft 438 kts 204°
2026-04-26 19:18 41.34166 -74.42100 26581 ft 434 kts 204°
2026-04-26 19:18 41.31298 -74.43333 26001 ft 433 kts 203°
2026-04-26 19:18 41.28468 -74.44546 25545 ft 429 kts 204°
2026-04-26 19:18 41.25629 -74.45763 25037 ft 427 kts 203°
2026-04-26 19:19 41.22797 -74.46975 24465 ft 426 kts 203°
2026-04-26 19:19 41.19985 -74.48177 24090 ft 421 kts 204°
2026-04-26 19:19 41.17222 -74.49359 23509 ft 420 kts 203°
2026-04-26 19:19 41.14448 -74.50542 23103 ft 416 kts 203°
2026-04-26 19:20 41.11711 -74.51711 22545 ft 416 kts 203°
2026-04-26 19:20 41.10789 -74.52103 22388 ft 415 kts 203°
2026-04-26 19:20 41.06321 -74.53774 21723 ft 413 kts 192°
2026-04-26 19:21 41.03651 -74.54078 21269 ft 413 kts 188°
2026-04-26 19:21 41.00798 -74.54359 20822 ft 411 kts 188°
2026-04-26 19:21 40.97991 -74.54628 20360 ft 409 kts 188°
2026-04-26 19:22 40.95145 -74.54895 20056 ft 403 kts 187°
2026-04-26 19:22 40.92330 -74.55159 19519 ft 404 kts 187°
2026-04-26 19:22 40.89551 -74.55416 19254 ft 396 kts 187°
2026-04-26 19:22 40.86894 -74.55657 19136 ft 378 kts 188°
2026-04-26 19:23 40.84329 -74.55892 19045 ft 357 kts 188°
2026-04-26 19:23 40.81858 -74.55936 18626 ft 357 kts 181°
2026-04-26 19:23 40.79357 -74.55804 18104 ft 356 kts 181°
2026-04-26 19:23 40.76926 -74.55685 17749 ft 350 kts 181°
2026-04-26 19:24 40.74498 -74.55559 17308 ft 349 kts 180°
2026-04-26 19:24 40.72078 -74.55433 16938 ft 345 kts 180°
2026-04-26 19:24 40.67199 -74.55138 16632 ft 365 kts 175°
2026-04-26 19:25 40.64687 -74.54368 15782 ft 375 kts 158°
2026-04-26 19:25 40.63905 -74.53910 15560 ft 373 kts 152°
2026-04-26 19:25 40.60570 -74.50472 14381 ft 365 kts 136°
2026-04-26 19:25 40.58600 -74.48390 13660 ft 363 kts 144°
2026-04-26 19:26 40.56534 -74.46542 13054 ft 357 kts 146°
2026-04-26 19:26 40.54448 -74.44804 12437 ft 352 kts 145°
2026-04-26 19:26 40.52657 -74.42857 11896 ft 343 kts 129°
2026-04-26 19:26 40.51287 -74.40612 11346 ft 336 kts 124°
2026-04-26 19:27 40.50029 -74.38091 10688 ft 326 kts 110°
2026-04-26 19:27 40.49419 -74.35332 10115 ft 313 kts 91°
2026-04-26 19:27 40.49510 -74.32555 9612 ft 298 kts 76°
2026-04-26 19:27 40.49485 -74.29928 9450 ft 288 kts 105°
2026-04-26 19:28 40.48334 -74.27773 8833 ft 299 kts 143°
2026-04-26 19:28 40.46572 -74.26357 8313 ft 296 kts 138°
2026-04-26 19:28 40.44976 -74.24732 7868 ft 293 kts 154°
2026-04-26 19:28 40.42954 -74.24125 7072 ft 305 kts 177°
2026-04-26 19:29 40.40861 -74.24327 6639 ft 297 kts 185°
2026-04-26 19:29 40.38878 -74.24601 6599 ft 277 kts 184°
2026-04-26 19:29 40.36985 -74.24824 6129 ft 276 kts 182°
2026-04-26 19:29 40.35011 -74.24997 5282 ft 288 kts 181°
2026-04-26 19:30 40.33036 -74.25198 4757 ft 287 kts 192°
2026-04-26 19:30 40.31223 -74.26284 4216 ft 287 kts 220°
2026-04-26 19:30 40.29972 -74.28268 3519 ft 289 kts 248°
2026-04-26 19:30 40.29566 -74.29945 3050 ft 287 kts 266°
2026-04-26 19:31 40.30027 -74.33117 2795 ft 252 kts 308°
2026-04-26 19:31 40.31192 -74.34576 2779 ft 220 kts 341°
2026-04-26 19:31 40.32586 -74.34848 2846 ft 194 kts 16°
2026-04-26 19:31 40.33825 -74.34250 2856 ft 188 kts 26°
2026-04-26 19:32 40.35029 -74.33530 2767 ft 187 kts 22°
2026-04-26 19:32 40.36248 -74.32997 2776 ft 185 kts 20°
2026-04-26 19:32 40.37516 -74.32557 2793 ft 191 kts 11°
2026-04-26 19:32 40.38850 -74.32282 2797 ft 194 kts
2026-04-26 19:33 40.40189 -74.32089 2771 ft 192 kts
2026-04-26 19:33 40.41496 -74.31856 2785 ft 191 kts 11°
2026-04-26 19:33 40.42816 -74.31653 2787 ft 192 kts
2026-04-26 19:33 40.44168 -74.31577 2767 ft 192 kts
2026-04-26 19:34 40.45497 -74.31485 2789 ft 191 kts 14°
2026-04-26 19:34 40.46732 -74.30796 2812 ft 191 kts 30°
2026-04-26 19:34 40.47903 -74.29947 2789 ft 191 kts 29°
2026-04-26 19:34 40.49077 -74.29187 2777 ft 187 kts 27°
2026-04-26 19:35 40.50271 -74.28449 2808 ft 191 kts 27°
2026-04-26 19:35 40.51479 -74.27693 2788 ft 193 kts 27°
2026-04-26 19:35 40.52694 -74.26921 2790 ft 193 kts 27°
2026-04-26 19:35 40.53899 -74.26160 2792 ft 193 kts 27°
2026-04-26 19:36 40.55072 -74.25421 2760 ft 174 kts 27°
2026-04-26 19:36 40.55431 -74.25196 2704 ft 168 kts 27°
2026-04-26 19:36 40.57133 -74.24131 2291 ft 154 kts 27°
2026-04-26 19:36 40.58036 -74.23559 2164 ft 132 kts 27°
2026-04-26 19:37 40.58861 -74.23039 1995 ft 134 kts 27°
2026-04-26 19:37 40.59724 -74.22495 1851 ft 138 kts 27°
2026-04-26 19:37 40.60583 -74.21951 1661 ft 138 kts 27°
2026-04-26 19:37 40.61447 -74.21406 1462 ft 137 kts 27°
2026-04-26 19:38 40.62310 -74.20860 1280 ft 137 kts 27°
2026-04-26 19:38 40.63167 -74.20318 1101 ft 139 kts 27°
2026-04-26 19:38 40.64051 -74.19756 895 ft 139 kts 28°
2026-04-26 19:38 40.64934 -74.19219 670 ft 140 kts 27°
2026-04-26 19:39 40.65804 -74.18673 449 ft 137 kts 29°
2026-04-26 19:39 40.66664 -74.18124 301 ft 136 kts 28°
2026-04-26 19:39 40.67517 -74.17577 138 ft 135 kts 28°
2026-04-26 19:39 40.68377 -74.17032 35 ft 139 kts 28°
2026-04-26 19:40 40.69170 -74.16528 29 ft 104 kts 26°
2026-04-26 19:40 40.69663 -74.16214 29 ft 55 kts 26°
2026-04-26 19:40 40.69916 -74.16058 28 ft 21 kts 17°
2026-04-26 19:40 40.70008 -74.16090 28 ft 7 kts 306°
2026-04-26 19:41 40.70027 -74.16135 28 ft 4 kts 296°
2026-04-26 19:41 40.70027 -74.16137 28 ft 0 kts 296°
2026-04-26 19:41 40.70031 -74.16147 28 ft 3 kts 296°
2026-04-26 19:41 40.70035 -74.16157 29 ft 4 kts 294°
2026-04-26 19:42 40.70049 -74.16240 28 ft 6 kts 275°
2026-04-26 19:42 40.70054 -74.16303 29 ft 7 kts 276°
2026-04-26 19:42 40.70061 -74.16388 28 ft 10 kts 275°
2026-04-26 19:42 40.70067 -74.16494 29 ft 7 kts 275°
2026-04-26 19:43 40.70073 -74.16579 29 ft 10 kts 275°
2026-04-26 19:43 40.70082 -74.16688 29 ft 13 kts 276°
2026-04-26 19:43 40.70090 -74.16810 29 ft 13 kts 273°
2026-04-26 19:43 40.70098 -74.16941 28 ft 14 kts 275°
2026-04-26 19:44 40.70106 -74.17080 28 ft 16 kts 275°
2026-04-26 19:44 40.70116 -74.17237 28 ft 17 kts 275°
2026-04-26 19:44 40.70118 -74.17274 29 ft 0 kts 275°
2026-04-26 19:44 40.70118 -74.17275 29 ft 0 kts 275°
2026-04-26 19:45 40.70114 -74.17314 29 ft 7 kts 246°
2026-04-26 19:45 40.70052 -74.17375 28 ft 15 kts 202°
2026-04-26 19:45 40.69962 -74.17479 28 ft 18 kts 227°
2026-04-26 19:45 40.69906 -74.17580 28 ft 10 kts 269°
2026-04-26 19:46 40.69946 -74.17660 28 ft 11 kts 321°
2026-04-26 19:46 40.69986 -74.17757 28 ft 14 kts 276°
2026-04-26 19:46 40.69995 -74.17914 28 ft 20 kts 275°
2026-04-26 19:46 40.70007 -74.18107 29 ft 12 kts 267°
2026-04-26 19:47 40.69956 -74.18158 28 ft 9 kts 194°
2026-04-26 19:47 40.69935 -74.18162 28 ft 9 kts 186°
2026-04-26 19:47 40.69834 -74.18143 28 ft 8 kts 153°
2026-04-26 19:47 40.69790 -74.18091 29 ft 6 kts 101°
2026-04-26 19:48 40.69798 -74.18057 28 ft 0 kts 65°
2026-04-26 19:48 40.69806 -74.18032 29 ft 2 kts 70°
2026-04-26 19:48 40.69807 -74.18030 29 ft 0 kts 70°
2026-04-26 19:48 40.69807 -74.18027 29 ft 0 kts 70°
2026-04-26 19:49 40.69808 -74.18026 29 ft 0 kts 70°